Weather History for Aurora, NE

Change the Weather History Date:

Wednesday, June 12, 2013

  Actual Average Record
Temperature  
Mean Temperature 74 °F -  
Max Temperature 87 °F 82 °F 95 °F (1976)
Min Temperature 60 °F 59 °F 46 °F (1985)
Cooling Degree Days 8    
Growing Degree Days 24 (Base 50)    
Moisture  
Dew Point 58 °F    
Average Humidity 54    
Maximum Humidity 85    
Minimum Humidity 31    
Precipitation  
Precipitation 0.00 in - - ()
Sea Level Pressure  
Sea Level Pressure 29.87 in    
Wind  
Wind Speed 16 mph (NNW)    
Max Wind Speed 25 mph    
Max Gust Speed 33 mph    
Visibility 10 miles    
Events      
Averages and records for this station are not official NWS values.
T = Trace of Precipitation, MM = Missing Value Source: NWS Daily Summary

Daily Weather History Graph

Daily Weather History Graph

Search for Another Location

Airport:

Trip Planner

Search our weather history database for the weather conditions in past years. The results will help you decide how hot, cold, wet, or windy it might be!

Date:

Astronomy

Jun. 12, 2013 Rise Set
Actual Time 5:59 AM CDT 9:04 PM CDT
Civil Twilight 5:26 AM CDT 9:37 PM CDT
Nautical Twilight 4:43 AM CDT 10:20 PM CDT
Astronomical Twilight 3:53 AM CDT 11:10 PM CDT
Moon 9:41 AM CDT (6/12) 11:39 PM CDT (6/12)
Length of Visible Light 16h 11m
Length of Day
15h 04m
Waxing Crescent, 14% of the Moon is Illuminated
Jun 12
Waxing Crescent
Jun 16
First Quarter
Jun 23
Full
Jun 29
Last Quarter
Jul 8
New

Hourly Weather History & Observations

Time (CDT) Temp. Heat Index Dew Point Humidity Pressure Visibility Wind Dir Wind Speed Gust Speed Precip Events Conditions
12:15 AM 82.6 °F 82.9 °F 60.6 °F 47% 29.62 in 10.0 mi South 21.9 mph 29.9 mph N/A   Clear
12:35 AM 82.4 °F 82.9 °F 61.2 °F 48% 29.63 in 10.0 mi South 18.4 mph 28.8 mph N/A   Clear
12:55 AM 81.9 °F 82.5 °F 61.2 °F 49% 29.67 in 10.0 mi SW 18.4 mph 31.1 mph N/A   Clear
1:15 AM 82.9 °F 83.2 °F 60.3 °F 46% 29.69 in 10.0 mi WSW 12.7 mph 19.6 mph N/A   Clear
1:35 AM 84.0 °F 83.3 °F 57.4 °F 40% 29.68 in 10.0 mi SW 21.9 mph 26.5 mph N/A   Clear
1:55 AM 83.8 °F 83.1 °F 57.4 °F 40% 29.67 in 10.0 mi SSW 18.4 mph - N/A   Clear
2:15 AM 82.0 °F 82.1 °F 58.8 °F 45% 29.69 in 10.0 mi West 5.8 mph - N/A   Clear
2:35 AM 79.7 °F - 59.5 °F 50% 29.69 in 10.0 mi SSE 3.5 mph - N/A   Clear
2:55 AM 78.6 °F - 59.9 °F 52% 29.70 in 10.0 mi SSE 6.9 mph - N/A   Clear
3:15 AM 77.2 °F - 60.1 °F 55% 29.68 in 10.0 mi SSE 8.1 mph - N/A   Clear
3:35 AM 75.9 °F - 60.1 °F 58% 29.67 in 10.0 mi SSE 9.2 mph - N/A   Clear
3:55 AM 74.3 °F - 60.1 °F 61% 29.69 in 10.0 mi Calm Calm - N/A   Clear
4:15 AM 71.6 °F - 60.3 °F 67% 29.70 in 10.0 mi NNE 8.1 mph - N/A   Clear
4:35 AM 71.1 °F - 60.1 °F 68% 29.70 in 10.0 mi NE 6.9 mph - N/A   Clear
4:55 AM 69.8 °F - 60.4 °F 72% 29.69 in 10.0 mi ESE 6.9 mph - N/A   Clear
5:15 AM 70.0 °F - 60.4 °F 72% 29.70 in 10.0 mi East 4.6 mph - N/A   Clear
5:35 AM 69.8 °F - 60.3 °F 72% 29.71 in 10.0 mi East 4.6 mph - N/A   Clear
5:55 AM 68.2 °F - 60.6 °F 77% 29.72 in 10.0 mi Calm Calm - N/A   Clear
6:15 AM 67.8 °F - 60.3 °F 77% 29.72 in 10.0 mi Calm Calm - N/A   Clear
6:35 AM 66.4 °F - 60.4 °F 81% 29.73 in 10.0 mi East 3.5 mph - N/A   Clear
6:55 AM 65.5 °F - 61.0 °F 85% 29.75 in 10.0 mi NW 11.5 mph 19.6 mph N/A   Clear
7:15 AM 69.3 °F - 63.1 °F 81% 29.77 in 10.0 mi NNW 9.2 mph - N/A   Clear
7:35 AM 70.0 °F - 64.0 °F 81% 29.77 in 10.0 mi NNW 13.8 mph - N/A   Clear
7:55 AM 71.8 °F - 64.9 °F 79% 29.80 in 10.0 mi NNW 20.7 mph 27.6 mph N/A   Clear
8:15 AM 72.5 °F - 64.6 °F 76% 29.81 in 10.0 mi North 23.0 mph 32.2 mph N/A   Clear
8:35 AM 72.9 °F - 63.9 °F 73% 29.82 in 10.0 mi North 20.7 mph 29.9 mph N/A   Clear
8:55 AM 73.8 °F - 63.5 °F 70% 29.81 in 10.0 mi North 16.1 mph - N/A   Clear
9:15 AM 75.7 °F - 63.1 °F 65% 29.81 in 10.0 mi North 15.0 mph - N/A   Clear
9:35 AM 77.9 °F - 63.3 °F 61% 29.82 in 10.0 mi NNW 17.3 mph 21.9 mph N/A   Clear
9:55 AM 78.1 °F - 62.6 °F 59% 29.84 in 10.0 mi NNW 18.4 mph 24.2 mph N/A   Clear
10:15 AM 78.8 °F - 62.6 °F 57% 29.84 in 10.0 mi NNW 16.1 mph 21.9 mph N/A   Clear
10:35 AM 79.2 °F - 62.8 °F 57% 29.85 in 10.0 mi North 15.0 mph 21.9 mph N/A   Clear
10:55 AM 80.4 °F 81.7 °F 62.8 °F 55% 29.85 in 10.0 mi NNW 13.8 mph - N/A   Clear
11:15 AM 81.7 °F 82.7 °F 62.2 °F 52% 29.86 in 10.0 mi NNW 13.8 mph - N/A   Clear
11:35 AM 82.8 °F 83.1 °F 60.8 °F 47% 29.87 in 10.0 mi NNW 20.7 mph 24.2 mph N/A   Clear
11:55 AM 84.2 °F 84.4 °F 61.0 °F 45% 29.88 in 10.0 mi NW 23.0 mph 28.8 mph N/A   Clear
12:15 PM 85.5 °F 84.8 °F 58.8 °F 40% 29.88 in 10.0 mi NNW 25.3 mph 28.8 mph N/A   Clear
12:35 PM 86.5 °F 84.7 °F 54.0 °F 33% 29.89 in 10.0 mi NNW 24.2 mph 31.1 mph N/A   Clear
12:55 PM 86.9 °F 84.8 °F 53.2 °F 31% 29.89 in 10.0 mi NNW 24.2 mph 28.8 mph N/A   Clear
1:15 PM 86.7 °F 84.9 °F 54.1 °F 33% 29.90 in 10.0 mi NNW 23.0 mph 32.2 mph N/A   Clear
1:35 PM 86.4 °F 84.9 °F 55.6 °F 35% 29.91 in 10.0 mi North 24.2 mph 31.1 mph N/A   Clear
1:55 PM 85.8 °F 84.5 °F 55.8 °F 36% 29.91 in 10.0 mi NNW 21.9 mph 31.1 mph N/A   Clear
2:15 PM 85.5 °F 84.5 °F 57.4 °F 38% 29.92 in 10.0 mi NNW 21.9 mph 31.1 mph N/A   Clear
2:35 PM 85.6 °F 84.7 °F 57.4 °F 38% 29.92 in 10.0 mi NNW 19.6 mph 29.9 mph N/A   Clear
2:55 PM 85.3 °F 84.3 °F 57.0 °F 38% 29.92 in 10.0 mi NNW 19.6 mph 28.8 mph N/A   Clear
3:15 PM 85.5 °F 84.1 °F 55.8 °F 36% 29.93 in 10.0 mi NNW 21.9 mph 29.9 mph N/A   Clear
3:35 PM 85.3 °F 83.9 °F 55.6 °F 36% 29.93 in 10.0 mi NNW 19.6 mph 29.9 mph N/A   Clear
3:55 PM 85.1 °F 83.8 °F 55.4 °F 36% 29.94 in 10.0 mi NNW 23.0 mph 28.8 mph N/A   Clear
4:15 PM 84.4 °F 83.2 °F 55.8 °F 37% 29.94 in 10.0 mi North 19.6 mph 29.9 mph N/A   Clear
4:35 PM 83.5 °F 82.6 °F 55.8 °F 39% 29.96 in 10.0 mi NNW 21.9 mph 31.1 mph N/A   Clear
4:55 PM 83.3 °F 82.5 °F 55.8 °F 39% 29.96 in 10.0 mi NNW 23.0 mph 29.9 mph N/A   Clear
5:15 PM 82.8 °F 82.0 °F 55.8 °F 39% 29.95 in 10.0 mi North 21.9 mph 33.4 mph N/A   Clear
5:35 PM 82.2 °F 81.8 °F 56.1 °F 41% 29.96 in 10.0 mi NNW 24.2 mph 29.9 mph N/A   Clear
5:55 PM 80.4 °F 80.4 °F 55.6 °F 42% 29.97 in 10.0 mi NNW 24.2 mph 29.9 mph N/A   Clear
6:15 PM 79.3 °F - 55.2 °F 43% 29.98 in 10.0 mi NNW 24.2 mph 29.9 mph N/A   Clear
6:35 PM 77.9 °F - 54.9 °F 45% 29.99 in 10.0 mi North 25.3 mph 31.1 mph N/A   Clear
6:55 PM 75.9 °F - 54.5 °F 47% 30.00 in 10.0 mi NNW 21.9 mph 31.1 mph N/A   Clear
7:15 PM 74.7 °F - 53.4 °F 47% 30.01 in 10.0 mi NNW 24.2 mph 29.9 mph N/A   Clear
7:35 PM 73.6 °F - 52.3 °F 47% 30.01 in 10.0 mi NNW 21.9 mph 31.1 mph N/A   Clear
7:55 PM 72.7 °F - 51.8 °F 48% 30.02 in 10.0 mi North 18.4 mph - N/A   Clear
8:15 PM 71.6 °F - 51.4 °F 49% 30.03 in 10.0 mi North 20.7 mph 27.6 mph N/A   Clear
8:35 PM 70.5 °F - 51.4 °F 51% 30.03 in 10.0 mi North 20.7 mph 25.3 mph N/A   Clear
8:55 PM 69.3 °F - 50.9 °F 52% 30.04 in 10.0 mi North 17.3 mph - N/A   Clear
9:15 PM 68.2 °F - 50.9 °F 54% 30.05 in 10.0 mi North 17.3 mph 21.9 mph N/A   Clear
9:35 PM 67.5 °F - 51.1 °F 56% 30.06 in 10.0 mi North 17.3 mph 25.3 mph N/A   Clear
9:55 PM 66.4 °F - 51.4 °F 59% 30.07 in 10.0 mi North 13.8 mph 21.9 mph N/A   Clear
10:15 PM 65.3 °F - 52.3 °F 63% 30.08 in 10.0 mi North 12.7 mph - N/A   Clear
10:35 PM 64.6 °F - 52.9 °F 66% 30.10 in 10.0 mi NNE 15.0 mph - N/A   Clear
10:55 PM 63.3 °F - 53.1 °F 69% 30.10 in 10.0 mi North 16.1 mph 21.9 mph N/A   Clear
11:15 PM 62.6 °F - 52.9 °F 70% 30.11 in 10.0 mi North 10.4 mph - N/A   Clear
11:35 PM 61.5 °F - 52.9 °F 73% 30.12 in 10.0 mi NNW 5.8 mph - N/A   Clear
11:55 PM 60.8 °F - 53.1 °F 76% 30.13 in 10.0 mi North 8.1 mph - N/A   Clear